Weather in Yingkou

China     40°40′21″N   122°15′03″E
temp.,
°C
wind,
m/s
gust,
m/s
humid.,
%
clouds,
%
prec.,
mm/h
press.,
hPa
HPBL,
m
1 july, fri
fri123:00+23ssw1190100 0.3 100713
02:00+22ese2294100 1.3 100736
05:00+22sse0195100 2.7 100726
08:00+22ssw2494100 3.7 1009289
11:00+24nw118897 0.3 1009320
14:00+26wsw227745 0.3 1008673
17:00+26sw327912 0.4 1008367
20:00+22ssw239480 3.3 100950
2 july, sat
sat223:00+22s2294100 0.4 100924
02:00+21se2395100 1.3 100960
05:00+21sse3596100 0.5 1010148
08:00+24sse348898 0.8 1010410
11:00+26s7878100 1.4 1010765
14:00+25ssw5882100 2.8 1009532
17:00+26sse71179100 0.3 1008607
20:00+23sse5108893 0.8 1008286
3 july, sun
sun323:00+22s499445 0.6 1008243
02:00+21s3998100 6.0 1008273
05:00+21sse4109536 2.6 1008243
08:00+25s59793 2.6 1008494
11:00+27ssw69702 0.0 1007754
14:00+28sw697163 0.0 1006781
17:00+26sw59784 0.0 1006416
20:00+23s35893 0.0 1006107
4 july, mon
mon423:00+22sse478841 0.0 1007149
02:00+21sse4886100 0.0 1006180
05:00+21sse3787100 0.0 1006177
08:00+25s467231 0.0 1007413
11:00+27ssw467158 0.0 1007790
14:00+28ssw676925 0.1 1005984
17:00+26sw477731 0.3 1005491
20:00+24ssw248838 0.3 100562
5 july, tue
tue523:00+23ssw349263 0.0 100682
02:00+22s359287 0.0 1006120
05:00+22sse349144 0.0 100693
08:00+26ssw45775 0.0 1006449
11:00+27sw567118 0.0 1006620
14:00+28wsw56705 0.0 1005457
17:00+26sw46755 0.0 1004312
20:00+23sw35865 0.0 1005105